When you browse on this site, cookies collect data to enhance your experience and personalize the content and advertising you see.
Visit our Privacy Policy to learn more. By continuing to use the site, you agree to this use of cookies and data.
EN

Hourly Weather Wroblik

Today, 27 September, Sunday

Time Temperature Precipitation Wind Pressure Humidity
00:00 +18°C° 0 mm 4 mps 742 mmHg 81%
01:00 +17°C° 0 mm 5 mps 742 mmHg 79%
02:00 +17°C° 0 mm 6 mps 742 mmHg 77%
03:00 +17°C° 0 mm 6 mps 742 mmHg 76%
04:00 +17°C° 0 mm 6 mps 741 mmHg 74%
05:00 +17°C° 0 mm 6 mps 742 mmHg 73%
06:00 +17°C° 0 mm 7 mps 742 mmHg 73%
07:00 +17°C° 0 mm 7 mps 742 mmHg 69%
08:00 +18°C° 0 mm 7 mps 742 mmHg 67%
09:00 +18°C° 0 mm 8 mps 742 mmHg 66%
10:00 +20°C° 0 mm 8 mps 742 mmHg 65%
11:00 +18°C° 0 mm 8 mps 743 mmHg 64%
12:00 +18°C° 0 mm 7 mps 743 mmHg 62%
13:00 +20°C° 0 mm 5 mps 744 mmHg 57%
14:00 +20°C° 0.1 mm 5 mps 744 mmHg 61%
15:00 +19°C° 0.1 mm 6 mps 745 mmHg 65%
16:00 +19°C° 0.1 mm 6 mps 745 mmHg 69%
17:00 +16°C° 0.6 mm 6 mps 746 mmHg 76%
18:00 +15°C° 0.6 mm 5 mps 746 mmHg 82%
19:00 +13°C° 0.6 mm 5 mps 747 mmHg 89%
20:00 +12°C° 0 mm 5 mps 748 mmHg 89%
21:00 +12°C° 0 mm 5 mps 748 mmHg 88%
22:00 +11°C° 0 mm 4 mps 749 mmHg 87%
23:00 +10°C° 0 mm 4 mps 750 mmHg 87%

Tomorrow, 28 September, Monday

Time Temperature Precipitation Wind Pressure Humidity
00:00 +10°C° 0 mm 4 mps 750 mmHg 87%
01:00 +10°C° 0 mm 3 mps 751 mmHg 87%
02:00 +9°C° 0 mm 3 mps 751 mmHg 89%
03:00 +9°C° 0 mm 3 mps 751 mmHg 91%
04:00 +8°C° 0 mm 3 mps 752 mmHg 92%
05:00 +9°C° 0 mm 3 mps 752 mmHg 90%
06:00 +9°C° 0 mm 3 mps 753 mmHg 88%
07:00 +9°C° 0 mm 3 mps 753 mmHg 85%
08:00 +11°C° 0 mm 3 mps 754 mmHg 78%
09:00 +13°C° 0 mm 3 mps 754 mmHg 70%
10:00 +16°C° 0 mm 3 mps 754 mmHg 63%
11:00 +16°C° 0 mm 3 mps 754 mmHg 59%
12:00 +17°C° 0 mm 2 mps 754 mmHg 55%
13:00 +18°C° 0 mm 2 mps 754 mmHg 51%
14:00 +18°C° 0 mm 2 mps 754 mmHg 53%
15:00 +18°C° 0 mm 2 mps 754 mmHg 56%
16:00 +18°C° 0 mm 1 mps 754 mmHg 59%
17:00 +16°C° 0 mm 1 mps 754 mmHg 63%
18:00 +14°C° 0 mm 2 mps 754 mmHg 68%
19:00 +12°C° 0 mm 2 mps 754 mmHg 73%
20:00 +12°C° 0 mm 2 mps 754 mmHg 74%
21:00 +12°C° 0 mm 2 mps 754 mmHg 75%
22:00 +10°C° 0 mm 2 mps 754 mmHg 76%
23:00 +10°C° 0 mm 2 mps 754 mmHg 77%

Day after tomorrow, 29 September, Tuesday

Time Temperature Precipitation Wind Pressure Humidity
00:00 +10°C° 0 mm 2 mps 754 mmHg 77%
01:00 +10°C° 0 mm 2 mps 754 mmHg 78%
02:00 +10°C° 0 mm 2 mps 754 mmHg 79%
03:00 +9°C° 0 mm 2 mps 754 mmHg 80%
04:00 +9°C° 0 mm 2 mps 754 mmHg 81%
05:00 +10°C° 0 mm 3 mps 754 mmHg 80%
06:00 +10°C° 0 mm 3 mps 754 mmHg 79%
07:00 +10°C° 0 mm 3 mps 754 mmHg 79%
08:00 +12°C° 0 mm 3 mps 754 mmHg 75%
09:00 +14°C° 0 mm 4 mps 754 mmHg 70%
10:00 +15°C° 0 mm 4 mps 754 mmHg 66%
11:00 +17°C° 0 mm 4 mps 753 mmHg 64%
12:00 +18°C° 0 mm 4 mps 753 mmHg 62%
13:00 +19°C° 0 mm 4 mps 753 mmHg 60%
14:00 +19°C° 0 mm 4 mps 753 mmHg 63%
15:00 +18°C° 0 mm 4 mps 753 mmHg 65%
16:00 +18°C° 0 mm 3 mps 753 mmHg 68%
17:00 +17°C° 0 mm 3 mps 753 mmHg 74%
18:00 +14°C° 0 mm 3 mps 753 mmHg 79%
19:00 +13°C° 0 mm 3 mps 753 mmHg 84%
20:00 +13°C° 0 mm 3 mps 753 mmHg 83%
21:00 +14°C° 0 mm 2 mps 753 mmHg 81%
22:00 +14°C° 0 mm 2 mps 753 mmHg 79%
23:00 +14°C° 0 mm 2 mps 753 mmHg 79%

30 September, Wednesday

Time Temperature Precipitation Wind Pressure Humidity
00:00 +14°C° 0 mm 2 mps 753 mmHg 79%
01:00 +14°C° 0 mm 2 mps 753 mmHg 80%
02:00 +13°C° 0 mm 2 mps 753 mmHg 82%
03:00 +12°C° 0 mm 2 mps 753 mmHg 85%
04:00 +12°C° 0 mm 2 mps 753 mmHg 87%
05:00 +11°C° 0 mm 3 mps 753 mmHg 85%
06:00 +11°C° 0 mm 3 mps 753 mmHg 84%
07:00 +11°C° 0 mm 3 mps 753 mmHg 82%
08:00 +13°C° 0 mm 4 mps 753 mmHg 76%
09:00 +14°C° 0 mm 4 mps 752 mmHg 69%
10:00 +17°C° 0 mm 4 mps 752 mmHg 62%
11:00 +18°C° 0 mm 4 mps 752 mmHg 61%
12:00 +18°C° 0 mm 4 mps 752 mmHg 60%
13:00 +19°C° 0 mm 5 mps 752 mmHg 58%
14:00 +19°C° 0 mm 5 mps 751 mmHg 61%
15:00 +18°C° 0 mm 4 mps 751 mmHg 63%
16:00 +18°C° 0 mm 4 mps 751 mmHg 66%
17:00 +15°C° 0 mm 4 mps 751 mmHg 70%
18:00 +14°C° 0 mm 4 mps 751 mmHg 75%
19:00 +13°C° 0 mm 3 mps 751 mmHg 80%
20:00 +13°C° 0 mm 3 mps 751 mmHg 84%
21:00 +12°C° 0 mm 3 mps 751 mmHg 89%
22:00 +12°C° 0 mm 3 mps 750 mmHg 93%
23:00 +11°C° 0 mm 3 mps 750 mmHg 93%

1 October, Thursday

Time Temperature Precipitation Wind Pressure Humidity
00:00 +12°C° 0 mm 2 mps 750 mmHg 94%
01:00 +12°C° 0 mm 2 mps 750 mmHg 95%
02:00 +10°C° 0 mm 2 mps 750 mmHg 95%
03:00 +10°C° 0 mm 2 mps 750 mmHg 95%
04:00 +10°C° 0 mm 2 mps 750 mmHg 95%
05:00 +10°C° 0 mm 2 mps 750 mmHg 91%
06:00 +11°C° 0 mm 3 mps 749 mmHg 87%
07:00 +11°C° 0 mm 3 mps 749 mmHg 83%
08:00 +12°C° 0 mm 3 mps 749 mmHg 76%
09:00 +14°C° 0 mm 3 mps 749 mmHg 69%
10:00 +16°C° 0 mm 3 mps 749 mmHg 61%
11:00 +17°C° 0 mm 3 mps 748 mmHg 60%
12:00 +18°C° 0 mm 4 mps 748 mmHg 59%
13:00 +19°C° 0 mm 4 mps 748 mmHg 57%
14:00 +18°C° 0 mm 4 mps 748 mmHg 61%
15:00 +17°C° 0 mm 4 mps 748 mmHg 66%
16:00 +17°C° 0 mm 4 mps 748 mmHg 70%
17:00 +15°C° 0 mm 4 mps 748 mmHg 74%
18:00 +13°C° 0 mm 4 mps 748 mmHg 77%
19:00 +12°C° 0 mm 4 mps 748 mmHg 80%
20:00 +12°C° 0 mm 3 mps 748 mmHg 84%
21:00 +11°C° 0 mm 3 mps 748 mmHg 87%
22:00 +10°C° 0 mm 3 mps 747 mmHg 91%
23:00 +10°C° 0 mm 3 mps 747 mmHg 93%

2 October, Friday

Time Temperature Precipitation Wind Pressure Humidity
00:00 +10°C° 0 mm 3 mps 747 mmHg 95%
01:00 +10°C° 0 mm 3 mps 747 mmHg 97%
02:00 +10°C° 0 mm 3 mps 747 mmHg 96%
03:00 +10°C° 0 mm 3 mps 747 mmHg 96%
04:00 +10°C° 0 mm 3 mps 747 mmHg 96%
05:00 +10°C° 0 mm 3 mps 747 mmHg 95%
06:00 +11°C° 0 mm 4 mps 747 mmHg 93%
07:00 +11°C° 0 mm 4 mps 747 mmHg 91%
08:00 +12°C° 0 mm 4 mps 747 mmHg 86%
09:00 +13°C° 0 mm 4 mps 747 mmHg 80%
10:00 +15°C° 0 mm 4 mps 747 mmHg 75%
11:00 +17°C° 0.1 mm 4 mps 747 mmHg 72%
12:00 +17°C° 0.1 mm 4 mps 746 mmHg 69%
13:00 +17°C° 0.1 mm 5 mps 746 mmHg 67%
14:00 +18°C° 0.3 mm 4 mps 746 mmHg 70%
15:00 +17°C° 0.3 mm 4 mps 746 mmHg 73%
16:00 +15°C° 0.3 mm 4 mps 746 mmHg 76%
17:00 +14°C° 0 mm 4 mps 746 mmHg 80%
18:00 +13°C° 0 mm 4 mps 746 mmHg 85%
19:00 +12°C° 0 mm 3 mps 746 mmHg 89%
20:00 +12°C° 0.1 mm 4 mps 746 mmHg 89%
21:00 +12°C° 0.1 mm 4 mps 746 mmHg 90%
22:00 +12°C° 0.1 mm 4 mps 746 mmHg 91%
23:00 +12°C° 0 mm 4 mps 746 mmHg 91%
Show more